Location: Molveno
(46.1500°N, 10.9667°E)
Time: 01:06:14
(UTC+00:00)

Nadezhda 3 Rocket - Pass Details

Date: 05 July 2020
Orbit: 957 x 1000 km, 82.9° (Epoch: 11 August)

Event Time Altitude Azimuth Distance (km) Brightness Sun altitude
Rises 21:16:44 0° 355° (N) 3,734 8.3 -15.6°
Reaches altitude 10° 21:19:23 10° 0° (N) 2,779 7.3 -15.9°
Maximum altitude 21:25:34 50° 76° (ENE) 1,247 4.5 -16.4°
Enters shadow 21:29:10 24° 140° (SE) 1,906 4.9 -16.7°
